Regional Weather Roundup
Issued by NWS

Home | Current Version | Previous Version | Graphics & Text | Print | Product List | Glossary On
Versions: 1 2 3 4 5 6 7 8 9 10 11 12 13 14 15 16 17 18 19 20 21 22 23 24 25 26 27 28 29 30 31 32 33 34 35 36 37 38 39 40 41 42 43 44 45 46 47 48 49 50
000
ASUS43 KMPX 061401
RWRMN
WEATHER ROUNDUP FOR MINNESOTA
NATIONAL WEATHER SERVICE TWIN CITIES/CHANHASSEN MN
900 AM CDT WED MAY 06 2015


NOTE: "FAIR" INDICATES FEW OR NO CLOUDS BELOW 12,000 FEET WITH NO
SIGNIFICANT WEATHER AND/OR OBSTRUCTIONS TO VISIBILITY. N/A MEANS
CURRENT SKY AND/OR WEATHER CONDITIONS ARE NOT AVAILABLE.

MNZ060>063-068>070-061500-
   Twin Cities Metro

CITY           SKY/WX    TMP DP  RH WIND       PRES   REMARKS
TWIN CITIES    CLOUDY    57  55  93 SE12      30.07F FOG
ST PAUL        CLOUDY    57  55  93 SE9       30.08F FOG
CRYSTAL        CLOUDY    58  55  90 SE7       30.05F FOG
BLAINE         CLOUDY    57  57 100 SE8       30.06F FOG
LAKEVILLE      CLOUDY    55  55 100 E8        30.07R FOG
EDEN PRAIRIE   CLOUDY    57  55  93 SE10      30.05F FOG
SOUTH ST PAUL  CLOUDY    57  55  92 SE6       30.08R FOG
LAKE ELMO      CLOUDY    55  55 100 E8        30.09F FOG
$$
MNZ001>005-007-008-013>017-022>024-027-028-061500-
   Northwest Minnesota

CITY           SKY/WX    TMP DP  RH WIND       PRES   REMARKS
BEMIDJI        CLOUDY    59  52  77 SE12      30.00S
HALLOCK        CLOUDY    64  52  63 SE18      29.90F
ROSEAU         PTSUNNY   61  48  63 SE14      29.96F
WARROAD        MOSUNNY   59  46  63 SE9       29.97F
THIEF RVR FALL CLOUDY    63  52  67 SE12      29.93F
CROOKSTON      CLOUDY    63  55  77 S20       29.93S
FOSSTON        PTSUNNY   63  54  72 S12G17    29.96S
DETROIT LAKES  CLOUDY    57  54  88 S14G20    29.98S
MOORHEAD       LGT RAIN  57  55  94 S17       29.93F
PARK RAPIDS    CLOUDY    59  53  80 SE16      30.00F
MAHNOMEN       FAIR      60  54  82 SE12G20   29.95S
$$
MNZ006-009>011-018-025>026-061500-
   North Central Minnesota

CITY           SKY/WX    TMP DP  RH WIND       PRES   REMARKS
BAUDETTE       CLOUDY    57  41  55 SE13      30.00F
FLAG ISLAND    SUNNY     55  41  58 S12       29.98F
INTL FALLS     CLOUDY    56  39  53 SE6       30.05F
WASKISH        CLOUDY    54  48  82 CALM      30.01R
BIG FORK       CLOUDY    54  46  76 SE6       30.05S
LONGVILLE      CLOUDY    57  54  88 SE8       30.03F
GRAND RAPIDS   CLOUDY    54  45  71 SE10      30.06F
CRANE LAKE     MOSUNNY   57  39  51 SE6       30.10F
ORR            CLOUDY    55  37  50 SE9       30.06S
COOK           LGT RAIN  54  43  66 SE9       30.09S
WALKER         CLOUDY    56  52  85 S10       30.01F
$$
MNZ012-019>021-037-061500-
   Northeast Minnesota

CITY           SKY/WX    TMP DP  RH WIND       PRES   REMARKS
DULUTH         CLOUDY    50  41  71 E10       30.11S
ELY            PTSUNNY   59  36  41 SE9       30.11S
HIBBING        CLOUDY    52  42  69 SE10      30.09S
EVELETH        CLOUDY    52  39  62 SE6       30.11F
DULUTH HARBOR  CLOUDY    43  37  81 NE6       30.14F
TWO HARBORS    CLOUDY    54  39  58 E5        30.12S
SILVER BAY     CLOUDY    55  30  38 NE8       30.13S
GRAND MARAIS     N/A     46  34  62 NE12      30.18S
G MARAIS ARPRT PTSUNNY   55  25  30 E8        30.18S
$$
MNZ029>031-032-039>041-046>048-054>057-064-061500-
   West Central Minnesota

CITY           SKY/WX    TMP DP  RH WIND       PRES   REMARKS
FERGUS FALLS   CLOUDY    57  55  94 SE15      29.97F
WHEATON        RAIN      54  54 100 SE18      29.94F
MORRIS         CLOUDY    57  55  94 SE21      29.94F FOG
ALEXANDRIA     FOG       55  54  96 SE17      30.00F VSB 3/4
ELBOW LAKE     CLOUDY    57  55  92 SE14G23   29.96F
WADENA         CLOUDY    55  54  94 SE14      30.00S FOG
GLENWOOD       CLOUDY   N/A N/A N/A E15       30.00F VSB 3/4
APPLETON       LGT RAIN  59  55  88 SE12      29.94F
BENSON         LGT RAIN  57  55  94 SE15      29.97F
ORTONVILLE     LGT RAIN  57  55  94 SE12      29.93S
MADISON        LGT RAIN  59  57  94 SE15      29.93F
WILLMAR        FOG       57  57 100 SE15G21   30.00F VSB 3/4
$$
MNZ033>034-036-042>043-049>051-058-059-061500-
   Central Minnesota

CITY           SKY/WX    TMP DP  RH WIND       PRES   REMARKS
ST CLOUD       FOG       56  55  97 SE9       30.04F VSB 1
SAUK CENTRE    CLOUDY    56  55  96 SE13      30.01F FOG
PAYNESVILLE    CLOUDY    53  54 100 E10       30.02F FOG
AITKIN         CLOUDY    57  52  82 SE8       30.04S
PINE RIVER     CLOUDY    55  52  88 SE12      30.06S
BRAINERD       CLOUDY    56  53  90 S9        30.05S
STAPLES        CLOUDY    55  54  94 SE9       30.02F FOG
LONG PRAIRIE   CLOUDY    54  54 100 SE10      30.02F FOG
LITTLE FALLS   LGT RAIN  54  52  94 SE7       30.04F
LITCHFIELD     FOG       57  57 100 SE10      30.02F VSB 3/4
BUFFALO        CLOUDY    57  54  91 E9        30.05F FOG
MAPLE LAKE     CLOUDY    57  57  98 E7        30.05F FOG
$$
MNZ037-044-045-052-053-061500-
   East Central Minnesota

CITY           SKY/WX    TMP DP  RH WIND       PRES   REMARKS
PRINCETON      FOG       55  54  94 E6        30.06F VSB 1
MORA           CLOUDY    54  48  82 SE6       30.10S
CAMBRIDGE      CLOUDY    57  48  72 E7        30.06F HAZE
RUSH CITY      CLOUDY    55  52  88 SE12      30.09S
MOOSE LAKE     CLOUDY    50  45  81 NE3       30.07F
HINCKLEY       CLOUDY    55  52  88 SE7       30.09S
CLOQUET        CLOUDY    46  43  87 E7        30.10S
MCGREGOR       CLOUDY    55  50  82 SE10      30.07F
$$
MNZ071>073-080-081-089-090-097-098-061500-
   Southwest Minnesota

CITY           SKY/WX    TMP DP  RH WIND       PRES   REMARKS
MONTEVIDEO     LGT RAIN  59  59 100 SE13      29.96F
GRANITE FALLS  LGT RAIN  59  58  99 E14       29.96F
CANBY          CLOUDY    59  58  96 SE12      29.92F FOG
MARSHALL       CLOUDY    61  55  82 SE14      29.93F
REDWOOD FALLS  LGT RAIN  59  58  96 E9        29.97F FOG
OLIVIA         LGT RAIN  55  54  94 SE14      29.98F
PIPESTONE      CLOUDY    63  61  94 SE10      29.92S
WINDOM         CLOUDY    61  61 100 SE16      29.97F
WORTHINGTON    CLOUDY    63  57  82 SE23G29   29.94F
JACKSON        FOG       61  59  94 SE20      29.98F VSB 3/4
TRACY          CLOUDY    62  61  96 SE13      29.95F FOG
SLAYTON        CLOUDY    61  61 100 SE16      29.94F FOG
$$
MNZ065>067-074>077-082>085-091>093-061500-
   South Central Minnesota

CITY           SKY/WX    TMP DP  RH WIND       PRES   REMARKS
MANKATO        CLOUDY    57  55  94 SE18      30.02F
NEW ULM        CLOUDY    59  57  94 SE12      30.00S FOG
ST JAMES       CLOUDY    61  59  94 SE15      30.00F FOG
FAIRMONT       CLOUDY    59  55  88 SE16G23   29.99F
GLENCOE        RAIN      58  58 100 E10       30.02F
FARIBAULT      LGT RAIN  57  55  94 E7        30.05F
OWATONNA       CLOUDY    57  55  94 SE16G23   30.04F FOG
WASECA         CLOUDY    57  54  88 SE16      30.05S FOG
ALBERT LEA     CLOUDY    57  55  94 SE14      30.05F FOG
$$
MNZ078>079-086>088-094>096-061500-
   Southeast Minnesota

CITY           SKY/WX    TMP DP  RH WIND       PRES   REMARKS
ROCHESTER      FOG       55  55 100 SE14      30.10S VSB 3/4
RED WING       CLOUDY    57  55  94 SE9       30.09S FOG
STANTON        LGT RAIN  58  55  89 E6        30.05F
DODGE CENTER   CLOUDY    57  55  94 SE13      30.08S FOG
WINONA         CLOUDY    55  54  94 SE6       30.12S FOG
AUSTIN         CLOUDY    55  55 100 SE10      30.07S FOG
PRESTON        FOG       54  53  98 SE10      30.10F VSB 1
$$
ABBREVIATIONS USED IN REMARKS
   TC - TEMPERATURES IN CELSIUS
  WCI - WIND CHILL INDEX
   HX - HEAT INDEX
  VSB - VISIBILITY
$$



USA.gov is the U.S. government's official web portal to all federal, state and local government web resources and services.